Location: Newark
(52.3735°N, 16.9806°E)
Time: 21:34:39
(UTC+00:00)

N. Korean satellite - Pass Details

Date: 02 October 2021
Orbit: 450 x 494 km, 97.3° (Epoch: 28 October)

Event Time Altitude Azimuth Distance (km) Brightness Sun altitude
Rises 03:19:39 0° 26° (NNE) 2,553 10.8 -15.3°
Reaches altitude 10° 03:22:09 10° 44° (NE) 1,676 10.2 -14.9°
Maximum altitude 03:24:49 19° 92° (E) 1,207 9.6 -14.5°
Drops below altitude 10° 03:27:30 10° 140° (SE) 1,681 9.7 -14.1°
Sets 03:30:01 0° 158° (SSE) 2,563 10.4 -13.7°
